Location: Waning Moon II Observatory
(30.3730°N, 89.7620°W)
Time: 16:35:11
(UTC-05:00)

Meteor 1-21 - Visible Passes

Search period start: 17 September 2014 00:00
Search period end: 27 September 2014 00:00
Orbit: 843 x 890 km, 81.2° (Epoch: 02 September)

Date Brightness Start Highest point End Pass type
(mag) Time Alt. Az. Time Alt. Az. Time Alt. Az.
18 Sep 7.0 06:21:40 10° SE 06:26:22 26° E 06:31:03 10° NE visible
19 Sep 6.9 06:14:27 10° SE 06:19:10 26° E 06:23:53 10° NE visible
20 Sep 6.8 06:07:14 10° SE 06:11:59 27° E 06:16:43 10° NE visible
21 Sep 6.7 06:00:01 10° SE 06:04:47 27° E 06:09:33 10° NE visible
22 Sep 6.7 05:52:48 10° SE 05:57:36 27° E 06:02:23 10° NE visible
23 Sep 6.6 05:45:35 10° SSE 05:50:24 28° E 05:55:12 10° NE visible
24 Sep 6.5 05:38:23 10° SSE 05:43:13 28° E 05:48:02 10° NNE visible
25 Sep 6.4 05:31:10 10° SSE 05:36:01 28° E 05:40:52 10° NNE visible
26 Sep 6.4 05:23:57 10° SSE 05:28:50 29° E 05:33:41 10° NNE visible
